Location: Kirtland Hills
(41.6239°N, 81.3071°W)
Time: 08:24:21
(UTC+00:00)

Meteor 2-10 Rocket - Pass Details

Date: 29 October 2020
Orbit: 733 x 885 km, 81.2° (Epoch: 28 November)

Event Time Altitude Azimuth Distance (km) Brightness Sun altitude
Rises 22:50:23 0° 157° (SSE) 3,305 6.7 -5.8°
Reaches altitude 10° 22:53:07 10° 146° (SE) 2,353 5.8 -6.3°
Maximum altitude 22:57:28 27° 90° (E) 1,464 4.4 -7.1°
Drops below altitude 10° 23:01:43 10° 34° (NE) 2,293 5.6 -7.8°
Sets 23:04:20 0° 23° (NNE) 3,205 6.4 -8.3°
